Location: Rumah Dana
(3.1167°N, 113.0167°E)
Time: 14:13:01
(UTC+00:00)

ARGOS - Pass Details

Date: 03 August 2024
Orbit: 818 x 834 km, 98.4° (Epoch: 07 September)

Event Time Altitude Azimuth Distance (km) Brightness Sun altitude
Rises 21:08:08 0° 6° (N) 3,342 6.7 -19.5°
Reaches altitude 10° 21:10:29 10° 4° (N) 2,410 5.9 -18.9°
Maximum altitude 21:15:46 65° 283° (WNW) 897 3.1 -17.7°
Enters shadow 21:20:43 12° 202° (SSW) 2,281 5.1 -16.5°
